Data supplied by UK-AIR on 5/4/2008
All Data GMT hour ending 
Status: R =Ratified P=Provisional,P*=As supplied
,,Billingham,,,,,,,,,,,,,,,,,,,,,,,
Date,time,"Nitric oxide",status,unit,"Nitrogen dioxide",status,unit,"Nitrogen oxides as nitrogen dioxide",status,unit
 
01-01-1997,01:00,,,,,,,,,
01-01-1997,02:00,1,R,ugm-3,8,R,ugm-3,10,R,ugm-3
01-01-1997,03:00,1,R,ugm-3,6,R,ugm-3,8,R,ugm-3
01-01-1997,04:00,1,R,ugm-3,4,R,ugm-3,6,R,ugm-3
01-01-1997,05:00,1,R,ugm-3,4,R,ugm-3,6,R,ugm-3
01-01-1997,06:00,1,R,ugm-3,4,R,ugm-3,6,R,ugm-3
01-01-1997,07:00,1,R,ugm-3,11,R,ugm-3,13,R,ugm-3
01-01-1997,08:00,1,R,ugm-3,17,R,ugm-3,19,R,ugm-3
01-01-1997,09:00,1,R,ugm-3,6,R,ugm-3,8,R,ugm-3
01-01-1997,10:00,1,R,ugm-3,8,R,ugm-3,10,R,ugm-3
01-01-1997,11:00,1,R,ugm-3,8,R,ugm-3,10,R,ugm-3
01-01-1997,12:00,1,R,ugm-3,13,R,ugm-3,15,R,ugm-3
01-01-1997,13:00,1,R,ugm-3,6,R,ugm-3,8,R,ugm-3
01-01-1997,14:00,1,R,ugm-3,10,R,ugm-3,11,R,ugm-3
01-01-1997,15:00,1,R,ugm-3,13,R,ugm-3,15,R,ugm-3
01-01-1997,16:00,3,R,ugm-3,21,R,ugm-3,25,R,ugm-3
01-01-1997,17:00,3,R,ugm-3,29,R,ugm-3,32,R,ugm-3
01-01-1997,18:00,9,R,ugm-3,67,R,ugm-3,80,R,ugm-3
01-01-1997,19:00,8,R,ugm-3,63,R,ugm-3,74,R,ugm-3
01-01-1997,20:00,1,R,ugm-3,34,R,ugm-3,36,R,ugm-3
01-01-1997,21:00,1,R,ugm-3,27,R,ugm-3,29,R,ugm-3
01-01-1997,22:00,1,R,ugm-3,25,R,ugm-3,27,R,ugm-3
01-01-1997,23:00,13,R,ugm-3,42,R,ugm-3,61,R,ugm-3
01-01-1997,24:00,3,R,ugm-3,31,R,ugm-3,34,R,ugm-3
02-01-1997,01:00,1,R,ugm-3,29,R,ugm-3,31,R,ugm-3
02-01-1997,02:00,1,R,ugm-3,15,R,ugm-3,17,R,ugm-3
02-01-1997,03:00,1,R,ugm-3,15,R,ugm-3,17,R,ugm-3
02-01-1997,04:00,1,R,ugm-3,15,R,ugm-3,17,R,ugm-3
02-01-1997,05:00,1,R,ugm-3,15,R,ugm-3,17,R,ugm-3
02-01-1997,06:00,5,R,ugm-3,42,R,ugm-3,50,R,ugm-3
02-01-1997,07:00,214,R,ugm-3,277,R,ugm-3,604,R,ugm-3
02-01-1997,08:00,231,R,ugm-3,120,R,ugm-3,474,R,ugm-3
02-01-1997,09:00,144,R,ugm-3,97,R,ugm-3,317,R,ugm-3
02-01-1997,10:00,145,R,ugm-3,92,R,ugm-3,313,R,ugm-3
02-01-1997,11:00,104,R,ugm-3,84,R,ugm-3,243,R,ugm-3
02-01-1997,12:00,105,R,ugm-3,92,R,ugm-3,252,R,ugm-3
02-01-1997,13:00,113,R,ugm-3,86,R,ugm-3,258,R,ugm-3
02-01-1997,14:00,56,R,ugm-3,76,R,ugm-3,162,R,ugm-3
02-01-1997,15:00,39,R,ugm-3,71,R,ugm-3,130,R,ugm-3
02-01-1997,16:00,69,R,ugm-3,86,R,ugm-3,191,R,ugm-3
02-01-1997,17:00,134,R,ugm-3,117,R,ugm-3,321,R,ugm-3
02-01-1997,18:00,28,R,ugm-3,52,R,ugm-3,94,R,ugm-3
02-01-1997,19:00,5,R,ugm-3,31,R,ugm-3,38,R,ugm-3
02-01-1997,20:00,4,R,ugm-3,36,R,ugm-3,42,R,ugm-3
02-01-1997,21:00,5,R,ugm-3,31,R,ugm-3,38,R,ugm-3
02-01-1997,22:00,1,R,ugm-3,19,R,ugm-3,21,R,ugm-3
02-01-1997,23:00,1,R,ugm-3,25,R,ugm-3,27,R,ugm-3
02-01-1997,24:00,1,R,ugm-3,25,R,ugm-3,27,R,ugm-3
03-01-1997,01:00,1,R,ugm-3,50,R,ugm-3,52,R,ugm-3
03-01-1997,02:00,30,R,ugm-3,69,R,ugm-3,115,R,ugm-3
03-01-1997,03:00,23,R,ugm-3,61,R,ugm-3,96,R,ugm-3
03-01-1997,04:00,6,R,ugm-3,46,R,ugm-3,55,R,ugm-3
03-01-1997,05:00,11,R,ugm-3,55,R,ugm-3,73,R,ugm-3
03-01-1997,06:00,5,R,ugm-3,52,R,ugm-3,59,R,ugm-3
03-01-1997,07:00,29,R,ugm-3,71,R,ugm-3,115,R,ugm-3
03-01-1997,08:00,83,R,ugm-3,80,R,ugm-3,206,R,ugm-3
03-01-1997,09:00,29,R,ugm-3,55,R,ugm-3,99,R,ugm-3
03-01-1997,10:00,5,R,ugm-3,25,R,ugm-3,32,R,ugm-3
03-01-1997,11:00,4,R,ugm-3,27,R,ugm-3,32,R,ugm-3
03-01-1997,12:00,5,R,ugm-3,27,R,ugm-3,34,R,ugm-3
03-01-1997,13:00,5,R,ugm-3,29,R,ugm-3,36,R,ugm-3
03-01-1997,14:00,3,R,ugm-3,25,R,ugm-3,29,R,ugm-3
03-01-1997,15:00,11,R,ugm-3,32,R,ugm-3,50,R,ugm-3
03-01-1997,16:00,6,R,ugm-3,27,R,ugm-3,36,R,ugm-3
03-01-1997,17:00,9,R,ugm-3,23,R,ugm-3,36,R,ugm-3
03-01-1997,18:00,1,R,ugm-3,13,R,ugm-3,15,R,ugm-3
03-01-1997,19:00,29,R,ugm-3,27,R,ugm-3,71,R,ugm-3
03-01-1997,20:00,19,R,ugm-3,23,R,ugm-3,52,R,ugm-3
03-01-1997,21:00,1,R,ugm-3,10,R,ugm-3,11,R,ugm-3
03-01-1997,22:00,1,R,ugm-3,13,R,ugm-3,15,R,ugm-3
03-01-1997,23:00,1,R,ugm-3,10,R,ugm-3,11,R,ugm-3
03-01-1997,24:00,1,R,ugm-3,21,R,ugm-3,23,R,ugm-3
04-01-1997,01:00,1,R,ugm-3,15,R,ugm-3,17,R,ugm-3
04-01-1997,02:00,1,R,ugm-3,13,R,ugm-3,15,R,ugm-3
04-01-1997,03:00,1,R,ugm-3,19,R,ugm-3,21,R,ugm-3
04-01-1997,04:00,1,R,ugm-3,17,R,ugm-3,19,R,ugm-3
04-01-1997,05:00,1,R,ugm-3,10,R,ugm-3,11,R,ugm-3
04-01-1997,06:00,1,R,ugm-3,19,R,ugm-3,21,R,ugm-3
04-01-1997,07:00,13,R,ugm-3,21,R,ugm-3,40,R,ugm-3
04-01-1997,08:00,26,R,ugm-3,32,R,ugm-3,73,R,ugm-3
04-01-1997,09:00,23,R,ugm-3,29,R,ugm-3,63,R,ugm-3
04-01-1997,10:00,11,R,ugm-3,31,R,ugm-3,48,R,ugm-3
04-01-1997,11:00,16,R,ugm-3,29,R,ugm-3,53,R,ugm-3
04-01-1997,12:00,10,R,ugm-3,25,R,ugm-3,40,R,ugm-3
04-01-1997,13:00,6,R,ugm-3,27,R,ugm-3,36,R,ugm-3
04-01-1997,14:00,5,R,ugm-3,19,R,ugm-3,27,R,ugm-3
04-01-1997,15:00,3,R,ugm-3,17,R,ugm-3,21,R,ugm-3
04-01-1997,16:00,6,R,ugm-3,17,R,ugm-3,27,R,ugm-3
04-01-1997,17:00,1,R,ugm-3,11,R,ugm-3,13,R,ugm-3
04-01-1997,18:00,1,R,ugm-3,8,R,ugm-3,10,R,ugm-3
04-01-1997,19:00,1,R,ugm-3,8,R,ugm-3,10,R,ugm-3
04-01-1997,20:00,1,R,ugm-3,8,R,ugm-3,10,R,ugm-3
04-01-1997,21:00,1,R,ugm-3,6,R,ugm-3,8,R,ugm-3
04-01-1997,22:00,1,R,ugm-3,6,R,ugm-3,8,R,ugm-3
04-01-1997,23:00,1,R,ugm-3,4,R,ugm-3,6,R,ugm-3
04-01-1997,24:00,1,R,ugm-3,4,R,ugm-3,6,R,ugm-3
05-01-1997,01:00,1,R,ugm-3,2,R,ugm-3,4,R,ugm-3
05-01-1997,02:00,1,R,ugm-3,8,R,ugm-3,10,R,ugm-3
05-01-1997,03:00,1,R,ugm-3,8,R,ugm-3,10,R,ugm-3
05-01-1997,04:00,1,R,ugm-3,6,R,ugm-3,8,R,ugm-3
05-01-1997,05:00,1,R,ugm-3,8,R,ugm-3,10,R,ugm-3
05-01-1997,06:00,1,R,ugm-3,10,R,ugm-3,11,R,ugm-3
05-01-1997,07:00,1,R,ugm-3,10,R,ugm-3,11,R,ugm-3
05-01-1997,08:00,1,R,ugm-3,11,R,ugm-3,13,R,ugm-3
05-01-1997,09:00,1,R,ugm-3,13,R,ugm-3,15,R,ugm-3
05-01-1997,10:00,1,R,ugm-3,10,R,ugm-3,11,R,ugm-3
05-01-1997,11:00,1,R,ugm-3,17,R,ugm-3,19,R,ugm-3
05-01-1997,12:00,1,R,ugm-3,19,R,ugm-3,21,R,ugm-3
05-01-1997,13:00,1,R,ugm-3,25,R,ugm-3,27,R,ugm-3
05-01-1997,14:00,6,R,ugm-3,42,R,ugm-3,52,R,ugm-3
05-01-1997,15:00,9,R,ugm-3,53,R,ugm-3,67,R,ugm-3
05-01-1997,16:00,4,R,ugm-3,52,R,ugm-3,57,R,ugm-3
05-01-1997,17:00,4,R,ugm-3,50,R,ugm-3,55,R,ugm-3
05-01-1997,18:00,4,R,ugm-3,53,R,ugm-3,59,R,ugm-3
05-01-1997,19:00,5,R,ugm-3,57,R,ugm-3,65,R,ugm-3
05-01-1997,20:00,4,R,ugm-3,57,R,ugm-3,63,R,ugm-3
05-01-1997,21:00,3,R,ugm-3,52,R,ugm-3,55,R,ugm-3
05-01-1997,22:00,4,R,ugm-3,55,R,ugm-3,61,R,ugm-3
05-01-1997,23:00,1,R,ugm-3,42,R,ugm-3,44,R,ugm-3
05-01-1997,24:00,1,R,ugm-3,50,R,ugm-3,52,R,ugm-3
06-01-1997,01:00,1,R,ugm-3,44,R,ugm-3,46,R,ugm-3
06-01-1997,02:00,1,R,ugm-3,36,R,ugm-3,38,R,ugm-3
06-01-1997,03:00,13,R,ugm-3,55,R,ugm-3,74,R,ugm-3
06-01-1997,04:00,3,R,ugm-3,38,R,ugm-3,42,R,ugm-3
06-01-1997,05:00,8,R,ugm-3,29,R,ugm-3,40,R,ugm-3
06-01-1997,06:00,14,R,ugm-3,40,R,ugm-3,61,R,ugm-3
06-01-1997,07:00,70,R,ugm-3,78,R,ugm-3,185,R,ugm-3
06-01-1997,08:00,,,,,,,,,
06-01-1997,09:00,186,R,ugm-3,134,R,ugm-3,418,R,ugm-3
06-01-1997,10:00,55,R,ugm-3,92,R,ugm-3,176,R,ugm-3
06-01-1997,11:00,14,R,ugm-3,46,R,ugm-3,67,R,ugm-3
06-01-1997,12:00,20,R,ugm-3,59,R,ugm-3,90,R,ugm-3
06-01-1997,13:00,53,R,ugm-3,78,R,ugm-3,159,R,ugm-3
06-01-1997,14:00,33,R,ugm-3,78,R,ugm-3,128,R,ugm-3
06-01-1997,15:00,14,R,ugm-3,59,R,ugm-3,80,R,ugm-3
06-01-1997,16:00,16,R,ugm-3,57,R,ugm-3,82,R,ugm-3
06-01-1997,17:00,8,R,ugm-3,38,R,ugm-3,50,R,ugm-3
06-01-1997,18:00,3,R,ugm-3,23,R,ugm-3,27,R,ugm-3
06-01-1997,19:00,3,R,ugm-3,34,R,ugm-3,38,R,ugm-3
06-01-1997,20:00,1,R,ugm-3,17,R,ugm-3,19,R,ugm-3
06-01-1997,21:00,1,R,ugm-3,23,R,ugm-3,25,R,ugm-3
06-01-1997,22:00,1,R,ugm-3,21,R,ugm-3,23,R,ugm-3
06-01-1997,23:00,1,R,ugm-3,25,R,ugm-3,27,R,ugm-3
06-01-1997,24:00,1,R,ugm-3,19,R,ugm-3,21,R,ugm-3
07-01-1997,01:00,1,R,ugm-3,50,R,ugm-3,52,R,ugm-3
07-01-1997,02:00,1,R,ugm-3,44,R,ugm-3,46,R,ugm-3
07-01-1997,03:00,3,R,ugm-3,42,R,ugm-3,46,R,ugm-3
07-01-1997,04:00,4,R,ugm-3,55,R,ugm-3,61,R,ugm-3
07-01-1997,05:00,3,R,ugm-3,36,R,ugm-3,40,R,ugm-3
07-01-1997,06:00,6,R,ugm-3,38,R,ugm-3,48,R,ugm-3
07-01-1997,07:00,28,R,ugm-3,52,R,ugm-3,94,R,ugm-3
07-01-1997,08:00,203,R,ugm-3,113,R,ugm-3,422,R,ugm-3
07-01-1997,09:00,201,R,ugm-3,96,R,ugm-3,403,R,ugm-3
07-01-1997,10:00,136,R,ugm-3,80,R,ugm-3,288,R,ugm-3
07-01-1997,11:00,128,R,ugm-3,86,R,ugm-3,281,R,ugm-3
07-01-1997,12:00,131,R,ugm-3,105,R,ugm-3,306,R,ugm-3
07-01-1997,13:00,130,R,ugm-3,99,R,ugm-3,298,R,ugm-3
07-01-1997,14:00,90,R,ugm-3,90,R,ugm-3,227,R,ugm-3
07-01-1997,15:00,174,R,ugm-3,107,R,ugm-3,372,R,ugm-3
07-01-1997,16:00,99,R,ugm-3,82,R,ugm-3,233,R,ugm-3
07-01-1997,17:00,125,R,ugm-3,88,R,ugm-3,279,R,ugm-3
07-01-1997,18:00,113,R,ugm-3,86,R,ugm-3,258,R,ugm-3
07-01-1997,19:00,134,R,ugm-3,88,R,ugm-3,292,R,ugm-3
07-01-1997,20:00,91,R,ugm-3,78,R,ugm-3,218,R,ugm-3
07-01-1997,21:00,31,R,ugm-3,74,R,ugm-3,122,R,ugm-3
07-01-1997,22:00,28,R,ugm-3,71,R,ugm-3,113,R,ugm-3
07-01-1997,23:00,1,R,ugm-3,17,R,ugm-3,19,R,ugm-3
07-01-1997,24:00,1,R,ugm-3,13,R,ugm-3,15,R,ugm-3
08-01-1997,01:00,1,R,ugm-3,13,R,ugm-3,15,R,ugm-3
08-01-1997,02:00,1,R,ugm-3,13,R,ugm-3,15,R,ugm-3
08-01-1997,03:00,1,R,ugm-3,11,R,ugm-3,13,R,ugm-3
08-01-1997,04:00,1,R,ugm-3,13,R,ugm-3,15,R,ugm-3
08-01-1997,05:00,1,R,ugm-3,17,R,ugm-3,19,R,ugm-3
08-01-1997,06:00,3,R,ugm-3,21,R,ugm-3,25,R,ugm-3
08-01-1997,07:00,6,R,ugm-3,40,R,ugm-3,50,R,ugm-3
08-01-1997,08:00,230,R,ugm-3,138,R,ugm-3,489,R,ugm-3
08-01-1997,09:00,183,R,ugm-3,118,R,ugm-3,397,R,ugm-3
08-01-1997,10:00,135,R,ugm-3,94,R,ugm-3,300,R,ugm-3
08-01-1997,11:00,94,R,ugm-3,86,R,ugm-3,229,R,ugm-3
08-01-1997,12:00,73,R,ugm-3,82,R,ugm-3,193,R,ugm-3
08-01-1997,13:00,96,R,ugm-3,97,R,ugm-3,244,R,ugm-3
08-01-1997,14:00,26,R,ugm-3,61,R,ugm-3,101,R,ugm-3
08-01-1997,15:00,21,R,ugm-3,52,R,ugm-3,84,R,ugm-3
08-01-1997,16:00,10,R,ugm-3,50,R,ugm-3,65,R,ugm-3
08-01-1997,17:00,9,R,ugm-3,53,R,ugm-3,67,R,ugm-3
08-01-1997,18:00,9,R,ugm-3,40,R,ugm-3,53,R,ugm-3
08-01-1997,19:00,14,R,ugm-3,67,R,ugm-3,88,R,ugm-3
08-01-1997,20:00,1,R,ugm-3,23,R,ugm-3,25,R,ugm-3
08-01-1997,21:00,1,R,ugm-3,15,R,ugm-3,17,R,ugm-3
08-01-1997,22:00,1,R,ugm-3,32,R,ugm-3,34,R,ugm-3
08-01-1997,23:00,1,R,ugm-3,25,R,ugm-3,27,R,ugm-3
08-01-1997,24:00,1,R,ugm-3,13,R,ugm-3,15,R,ugm-3
09-01-1997,01:00,1,R,ugm-3,17,R,ugm-3,19,R,ugm-3
09-01-1997,02:00,1,R,ugm-3,31,R,ugm-3,32,R,ugm-3
09-01-1997,03:00,1,R,ugm-3,19,R,ugm-3,21,R,ugm-3
09-01-1997,04:00,1,R,ugm-3,13,R,ugm-3,15,R,ugm-3
09-01-1997,05:00,1,R,ugm-3,15,R,ugm-3,17,R,ugm-3
09-01-1997,06:00,1,R,ugm-3,38,R,ugm-3,40,R,ugm-3
09-01-1997,07:00,9,R,ugm-3,38,R,ugm-3,52,R,ugm-3
09-01-1997,08:00,56,R,ugm-3,65,R,ugm-3,151,R,ugm-3
09-01-1997,09:00,29,R,ugm-3,61,R,ugm-3,105,R,ugm-3
09-01-1997,10:00,64,R,ugm-3,74,R,ugm-3,172,R,ugm-3
09-01-1997,11:00,21,R,ugm-3,46,R,ugm-3,78,R,ugm-3
09-01-1997,12:00,26,R,ugm-3,63,R,ugm-3,103,R,ugm-3
09-01-1997,13:00,13,R,ugm-3,36,R,ugm-3,55,R,ugm-3
09-01-1997,14:00,11,R,ugm-3,36,R,ugm-3,53,R,ugm-3
09-01-1997,15:00,13,R,ugm-3,46,R,ugm-3,65,R,ugm-3
09-01-1997,16:00,29,R,ugm-3,44,R,ugm-3,88,R,ugm-3
09-01-1997,17:00,30,R,ugm-3,63,R,ugm-3,109,R,ugm-3
09-01-1997,18:00,19,R,ugm-3,55,R,ugm-3,84,R,ugm-3
09-01-1997,19:00,5,R,ugm-3,40,R,ugm-3,48,R,ugm-3
09-01-1997,20:00,6,R,ugm-3,67,R,ugm-3,76,R,ugm-3
09-01-1997,21:00,3,R,ugm-3,52,R,ugm-3,55,R,ugm-3
09-01-1997,22:00,38,R,ugm-3,80,R,ugm-3,138,R,ugm-3
09-01-1997,23:00,81,R,ugm-3,78,R,ugm-3,202,R,ugm-3
09-01-1997,24:00,59,R,ugm-3,73,R,ugm-3,162,R,ugm-3
10-01-1997,01:00,20,R,ugm-3,59,R,ugm-3,90,R,ugm-3
10-01-1997,02:00,1,R,ugm-3,42,R,ugm-3,44,R,ugm-3
10-01-1997,03:00,9,R,ugm-3,65,R,ugm-3,78,R,ugm-3
10-01-1997,04:00,15,R,ugm-3,67,R,ugm-3,90,R,ugm-3
10-01-1997,05:00,41,R,ugm-3,67,R,ugm-3,130,R,ugm-3
10-01-1997,06:00,39,R,ugm-3,69,R,ugm-3,128,R,ugm-3
10-01-1997,07:00,70,R,ugm-3,78,R,ugm-3,185,R,ugm-3
10-01-1997,08:00,279,R,ugm-3,118,R,ugm-3,544,R,ugm-3
10-01-1997,09:00,245,R,ugm-3,109,R,ugm-3,483,R,ugm-3
10-01-1997,10:00,48,R,ugm-3,65,R,ugm-3,138,R,ugm-3
10-01-1997,11:00,90,R,ugm-3,65,R,ugm-3,202,R,ugm-3
10-01-1997,12:00,21,R,ugm-3,53,R,ugm-3,86,R,ugm-3
10-01-1997,13:00,25,R,ugm-3,46,R,ugm-3,84,R,ugm-3
10-01-1997,14:00,16,R,ugm-3,46,R,ugm-3,71,R,ugm-3
10-01-1997,15:00,183,R,ugm-3,92,R,ugm-3,371,R,ugm-3
10-01-1997,16:00,149,R,ugm-3,90,R,ugm-3,317,R,ugm-3
10-01-1997,17:00,158,R,ugm-3,88,R,ugm-3,329,R,ugm-3
10-01-1997,18:00,131,R,ugm-3,84,R,ugm-3,285,R,ugm-3
10-01-1997,19:00,134,R,ugm-3,74,R,ugm-3,279,R,ugm-3
10-01-1997,20:00,113,R,ugm-3,73,R,ugm-3,244,R,ugm-3
10-01-1997,21:00,151,R,ugm-3,82,R,ugm-3,313,R,ugm-3
10-01-1997,22:00,173,R,ugm-3,73,R,ugm-3,336,R,ugm-3
10-01-1997,23:00,11,R,ugm-3,38,R,ugm-3,55,R,ugm-3
10-01-1997,24:00,95,R,ugm-3,59,R,ugm-3,204,R,ugm-3
11-01-1997,01:00,126,R,ugm-3,65,R,ugm-3,258,R,ugm-3
11-01-1997,02:00,39,R,ugm-3,52,R,ugm-3,111,R,ugm-3
11-01-1997,03:00,63,R,ugm-3,55,R,ugm-3,151,R,ugm-3
11-01-1997,04:00,126,R,ugm-3,63,R,ugm-3,256,R,ugm-3
11-01-1997,05:00,31,R,ugm-3,52,R,ugm-3,99,R,ugm-3
11-01-1997,06:00,21,R,ugm-3,50,R,ugm-3,82,R,ugm-3
11-01-1997,07:00,31,R,ugm-3,53,R,ugm-3,101,R,ugm-3
11-01-1997,08:00,48,R,ugm-3,55,R,ugm-3,128,R,ugm-3
11-01-1997,09:00,121,R,ugm-3,63,R,ugm-3,248,R,ugm-3
11-01-1997,10:00,173,R,ugm-3,65,R,ugm-3,329,R,ugm-3
11-01-1997,11:00,169,R,ugm-3,65,R,ugm-3,323,R,ugm-3
11-01-1997,12:00,121,R,ugm-3,61,R,ugm-3,246,R,ugm-3
11-01-1997,13:00,75,R,ugm-3,57,R,ugm-3,172,R,ugm-3
11-01-1997,14:00,146,R,ugm-3,65,R,ugm-3,288,R,ugm-3
11-01-1997,15:00,174,R,ugm-3,71,R,ugm-3,336,R,ugm-3
11-01-1997,16:00,93,R,ugm-3,61,R,ugm-3,202,R,ugm-3
11-01-1997,17:00,80,R,ugm-3,61,R,ugm-3,183,R,ugm-3
11-01-1997,18:00,55,R,ugm-3,59,R,ugm-3,143,R,ugm-3
11-01-1997,19:00,55,R,ugm-3,59,R,ugm-3,143,R,ugm-3
11-01-1997,20:00,75,R,ugm-3,63,R,ugm-3,178,R,ugm-3
11-01-1997,21:00,36,R,ugm-3,53,R,ugm-3,109,R,ugm-3
11-01-1997,22:00,40,R,ugm-3,57,R,ugm-3,118,R,ugm-3
11-01-1997,23:00,41,R,ugm-3,55,R,ugm-3,118,R,ugm-3
11-01-1997,24:00,26,R,ugm-3,52,R,ugm-3,92,R,ugm-3
12-01-1997,01:00,20,R,ugm-3,53,R,ugm-3,84,R,ugm-3
12-01-1997,02:00,13,R,ugm-3,52,R,ugm-3,71,R,ugm-3
12-01-1997,03:00,18,R,ugm-3,50,R,ugm-3,76,R,ugm-3
12-01-1997,04:00,3,R,ugm-3,42,R,ugm-3,46,R,ugm-3
12-01-1997,05:00,3,R,ugm-3,38,R,ugm-3,42,R,ugm-3
12-01-1997,06:00,23,R,ugm-3,42,R,ugm-3,76,R,ugm-3
12-01-1997,07:00,45,R,ugm-3,48,R,ugm-3,117,R,ugm-3
12-01-1997,08:00,6,R,ugm-3,25,R,ugm-3,34,R,ugm-3
12-01-1997,09:00,1,R,ugm-3,17,R,ugm-3,19,R,ugm-3
12-01-1997,10:00,1,R,ugm-3,19,R,ugm-3,21,R,ugm-3
12-01-1997,11:00,13,R,ugm-3,23,R,ugm-3,42,R,ugm-3
12-01-1997,12:00,3,R,ugm-3,19,R,ugm-3,23,R,ugm-3
12-01-1997,13:00,3,R,ugm-3,21,R,ugm-3,25,R,ugm-3
12-01-1997,14:00,1,R,ugm-3,17,R,ugm-3,19,R,ugm-3
12-01-1997,15:00,1,R,ugm-3,17,R,ugm-3,19,R,ugm-3
12-01-1997,16:00,1,R,ugm-3,27,R,ugm-3,29,R,ugm-3
12-01-1997,17:00,1,R,ugm-3,25,R,ugm-3,27,R,ugm-3
12-01-1997,18:00,1,R,ugm-3,25,R,ugm-3,27,R,ugm-3
12-01-1997,19:00,3,R,ugm-3,31,R,ugm-3,34,R,ugm-3
12-01-1997,20:00,1,R,ugm-3,25,R,ugm-3,27,R,ugm-3
12-01-1997,21:00,1,R,ugm-3,23,R,ugm-3,25,R,ugm-3
12-01-1997,22:00,1,R,ugm-3,23,R,ugm-3,25,R,ugm-3
12-01-1997,23:00,1,R,ugm-3,29,R,ugm-3,31,R,ugm-3
12-01-1997,24:00,1,R,ugm-3,19,R,ugm-3,21,R,ugm-3
13-01-1997,01:00,8,R,ugm-3,19,R,ugm-3,31,R,ugm-3
13-01-1997,02:00,1,R,ugm-3,13,R,ugm-3,15,R,ugm-3
13-01-1997,03:00,1,R,ugm-3,17,R,ugm-3,19,R,ugm-3
13-01-1997,04:00,1,R,ugm-3,15,R,ugm-3,17,R,ugm-3
13-01-1997,05:00,1,R,ugm-3,19,R,ugm-3,21,R,ugm-3
13-01-1997,06:00,1,R,ugm-3,17,R,ugm-3,19,R,ugm-3
13-01-1997,07:00,5,R,ugm-3,23,R,ugm-3,31,R,ugm-3
13-01-1997,08:00,43,R,ugm-3,42,R,ugm-3,107,R,ugm-3
13-01-1997,09:00,34,R,ugm-3,36,R,ugm-3,88,R,ugm-3
13-01-1997,10:00,20,R,ugm-3,36,R,ugm-3,67,R,ugm-3
13-01-1997,11:00,14,R,ugm-3,32,R,ugm-3,53,R,ugm-3
13-01-1997,12:00,21,R,ugm-3,36,R,ugm-3,69,R,ugm-3
13-01-1997,13:00,14,R,ugm-3,36,R,ugm-3,57,R,ugm-3
13-01-1997,14:00,10,R,ugm-3,32,R,ugm-3,48,R,ugm-3
13-01-1997,15:00,5,R,ugm-3,31,R,ugm-3,38,R,ugm-3
13-01-1997,16:00,9,R,ugm-3,40,R,ugm-3,53,R,ugm-3
13-01-1997,17:00,9,R,ugm-3,42,R,ugm-3,55,R,ugm-3
13-01-1997,18:00,5,R,ugm-3,36,R,ugm-3,44,R,ugm-3
13-01-1997,19:00,3,R,ugm-3,40,R,ugm-3,44,R,ugm-3
13-01-1997,20:00,1,R,ugm-3,34,R,ugm-3,36,R,ugm-3
13-01-1997,21:00,1,R,ugm-3,38,R,ugm-3,40,R,ugm-3
13-01-1997,22:00,5,R,ugm-3,65,R,ugm-3,73,R,ugm-3
13-01-1997,23:00,8,R,ugm-3,67,R,ugm-3,78,R,ugm-3
13-01-1997,24:00,6,R,ugm-3,65,R,ugm-3,74,R,ugm-3
14-01-1997,01:00,1,R,ugm-3,59,R,ugm-3,61,R,ugm-3
14-01-1997,02:00,1,R,ugm-3,61,R,ugm-3,63,R,ugm-3
14-01-1997,03:00,3,R,ugm-3,61,R,ugm-3,65,R,ugm-3
14-01-1997,04:00,8,R,ugm-3,61,R,ugm-3,73,R,ugm-3
14-01-1997,05:00,1,R,ugm-3,52,R,ugm-3,53,R,ugm-3
14-01-1997,06:00,1,R,ugm-3,50,R,ugm-3,52,R,ugm-3
14-01-1997,07:00,18,R,ugm-3,57,R,ugm-3,84,R,ugm-3
14-01-1997,08:00,31,R,ugm-3,69,R,ugm-3,117,R,ugm-3
14-01-1997,09:00,49,R,ugm-3,76,R,ugm-3,151,R,ugm-3
14-01-1997,10:00,58,R,ugm-3,71,R,ugm-3,159,R,ugm-3
14-01-1997,11:00,,,,,,,,,
14-01-1997,12:00,31,R,ugm-3,63,R,ugm-3,111,R,ugm-3
14-01-1997,13:00,55,R,ugm-3,69,R,ugm-3,153,R,ugm-3
14-01-1997,14:00,41,R,ugm-3,71,R,ugm-3,134,R,ugm-3
14-01-1997,15:00,31,R,ugm-3,78,R,ugm-3,126,R,ugm-3
14-01-1997,16:00,154,R,ugm-3,101,R,ugm-3,336,R,ugm-3
14-01-1997,17:00,213,R,ugm-3,99,R,ugm-3,424,R,ugm-3
14-01-1997,18:00,200,R,ugm-3,101,R,ugm-3,407,R,ugm-3
14-01-1997,19:00,75,R,ugm-3,96,R,ugm-3,210,R,ugm-3
14-01-1997,20:00,63,R,ugm-3,92,R,ugm-3,187,R,ugm-3
14-01-1997,21:00,66,R,ugm-3,84,R,ugm-3,185,R,ugm-3
14-01-1997,22:00,39,R,ugm-3,84,R,ugm-3,143,R,ugm-3
14-01-1997,23:00,59,R,ugm-3,86,R,ugm-3,176,R,ugm-3
14-01-1997,24:00,43,R,ugm-3,80,R,ugm-3,145,R,ugm-3
15-01-1997,01:00,10,R,ugm-3,67,R,ugm-3,82,R,ugm-3
15-01-1997,02:00,1,R,ugm-3,42,R,ugm-3,44,R,ugm-3
15-01-1997,03:00,3,R,ugm-3,50,R,ugm-3,53,R,ugm-3
15-01-1997,04:00,13,R,ugm-3,65,R,ugm-3,84,R,ugm-3
15-01-1997,05:00,16,R,ugm-3,59,R,ugm-3,84,R,ugm-3
15-01-1997,06:00,43,R,ugm-3,63,R,ugm-3,128,R,ugm-3
15-01-1997,07:00,73,R,ugm-3,65,R,ugm-3,176,R,ugm-3
15-01-1997,08:00,315,R,ugm-3,117,R,ugm-3,598,R,ugm-3
15-01-1997,09:00,309,R,ugm-3,107,R,ugm-3,579,R,ugm-3
15-01-1997,10:00,199,R,ugm-3,78,R,ugm-3,382,R,ugm-3
15-01-1997,11:00,166,R,ugm-3,74,R,ugm-3,329,R,ugm-3
15-01-1997,12:00,221,R,ugm-3,96,R,ugm-3,434,R,ugm-3
15-01-1997,13:00,89,R,ugm-3,73,R,ugm-3,208,R,ugm-3
15-01-1997,14:00,71,R,ugm-3,69,R,ugm-3,178,R,ugm-3
15-01-1997,15:00,71,R,ugm-3,71,R,ugm-3,180,R,ugm-3
15-01-1997,16:00,105,R,ugm-3,76,R,ugm-3,237,R,ugm-3
15-01-1997,17:00,86,R,ugm-3,78,R,ugm-3,210,R,ugm-3
15-01-1997,18:00,206,R,ugm-3,90,R,ugm-3,405,R,ugm-3
15-01-1997,19:00,276,R,ugm-3,96,R,ugm-3,518,R,ugm-3
15-01-1997,20:00,158,R,ugm-3,80,R,ugm-3,321,R,ugm-3
15-01-1997,21:00,185,R,ugm-3,92,R,ugm-3,374,R,ugm-3
15-01-1997,22:00,89,R,ugm-3,80,R,ugm-3,216,R,ugm-3
15-01-1997,23:00,70,R,ugm-3,76,R,ugm-3,183,R,ugm-3
15-01-1997,24:00,81,R,ugm-3,82,R,ugm-3,206,R,ugm-3
16-01-1997,01:00,105,R,ugm-3,90,R,ugm-3,250,R,ugm-3
16-01-1997,02:00,99,R,ugm-3,82,R,ugm-3,233,R,ugm-3
16-01-1997,03:00,115,R,ugm-3,86,R,ugm-3,262,R,ugm-3
16-01-1997,04:00,105,R,ugm-3,84,R,ugm-3,244,R,ugm-3
16-01-1997,05:00,118,R,ugm-3,86,R,ugm-3,265,R,ugm-3
16-01-1997,06:00,64,R,ugm-3,76,R,ugm-3,174,R,ugm-3
16-01-1997,07:00,79,R,ugm-3,76,R,ugm-3,197,R,ugm-3
16-01-1997,08:00,189,R,ugm-3,105,R,ugm-3,393,R,ugm-3
16-01-1997,09:00,45,R,ugm-3,69,R,ugm-3,138,R,ugm-3
16-01-1997,10:00,25,R,ugm-3,55,R,ugm-3,94,R,ugm-3
16-01-1997,11:00,33,R,ugm-3,53,R,ugm-3,103,R,ugm-3
16-01-1997,12:00,45,R,ugm-3,55,R,ugm-3,124,R,ugm-3
16-01-1997,13:00,79,R,ugm-3,65,R,ugm-3,185,R,ugm-3
16-01-1997,14:00,39,R,ugm-3,61,R,ugm-3,120,R,ugm-3
16-01-1997,15:00,29,R,ugm-3,59,R,ugm-3,103,R,ugm-3
16-01-1997,16:00,36,R,ugm-3,67,R,ugm-3,122,R,ugm-3
16-01-1997,17:00,25,R,ugm-3,69,R,ugm-3,107,R,ugm-3
16-01-1997,18:00,29,R,ugm-3,71,R,ugm-3,115,R,ugm-3
16-01-1997,19:00,46,R,ugm-3,74,R,ugm-3,145,R,ugm-3
16-01-1997,20:00,38,R,ugm-3,76,R,ugm-3,134,R,ugm-3
16-01-1997,21:00,59,R,ugm-3,80,R,ugm-3,170,R,ugm-3
16-01-1997,22:00,74,R,ugm-3,86,R,ugm-3,199,R,ugm-3
16-01-1997,23:00,76,R,ugm-3,88,R,ugm-3,204,R,ugm-3
16-01-1997,24:00,86,R,ugm-3,99,R,ugm-3,231,R,ugm-3
17-01-1997,01:00,70,R,ugm-3,101,R,ugm-3,208,R,ugm-3
17-01-1997,02:00,83,R,ugm-3,101,R,ugm-3,227,R,ugm-3
17-01-1997,03:00,78,R,ugm-3,101,R,ugm-3,220,R,ugm-3
17-01-1997,04:00,93,R,ugm-3,99,R,ugm-3,241,R,ugm-3
17-01-1997,05:00,74,R,ugm-3,90,R,ugm-3,202,R,ugm-3
17-01-1997,06:00,88,R,ugm-3,86,R,ugm-3,220,R,ugm-3
17-01-1997,07:00,199,R,ugm-3,134,R,ugm-3,437,R,ugm-3
17-01-1997,08:00,199,R,ugm-3,99,R,ugm-3,403,R,ugm-3
17-01-1997,09:00,168,R,ugm-3,88,R,ugm-3,344,R,ugm-3
17-01-1997,10:00,199,R,ugm-3,94,R,ugm-3,397,R,ugm-3
17-01-1997,11:00,171,R,ugm-3,92,R,ugm-3,353,R,ugm-3
17-01-1997,12:00,66,R,ugm-3,69,R,ugm-3,170,R,ugm-3
17-01-1997,13:00,196,R,ugm-3,86,R,ugm-3,386,R,ugm-3
17-01-1997,14:00,145,R,ugm-3,80,R,ugm-3,302,R,ugm-3
17-01-1997,15:00,105,R,ugm-3,74,R,ugm-3,235,R,ugm-3
17-01-1997,16:00,30,R,ugm-3,63,R,ugm-3,109,R,ugm-3
17-01-1997,17:00,14,R,ugm-3,59,R,ugm-3,80,R,ugm-3
17-01-1997,18:00,6,R,ugm-3,40,R,ugm-3,50,R,ugm-3
17-01-1997,19:00,5,R,ugm-3,36,R,ugm-3,44,R,ugm-3
17-01-1997,20:00,3,R,ugm-3,34,R,ugm-3,38,R,ugm-3
17-01-1997,21:00,4,R,ugm-3,36,R,ugm-3,42,R,ugm-3
17-01-1997,22:00,31,R,ugm-3,48,R,ugm-3,96,R,ugm-3
17-01-1997,23:00,1,R,ugm-3,31,R,ugm-3,32,R,ugm-3
17-01-1997,24:00,1,R,ugm-3,32,R,ugm-3,34,R,ugm-3
18-01-1997,01:00,1,R,ugm-3,23,R,ugm-3,25,R,ugm-3
18-01-1997,02:00,84,R,ugm-3,55,R,ugm-3,183,R,ugm-3
18-01-1997,03:00,28,R,ugm-3,57,R,ugm-3,99,R,ugm-3
18-01-1997,04:00,1,R,ugm-3,36,R,ugm-3,38,R,ugm-3
18-01-1997,05:00,3,R,ugm-3,31,R,ugm-3,34,R,ugm-3
18-01-1997,06:00,50,R,ugm-3,46,R,ugm-3,122,R,ugm-3
18-01-1997,07:00,38,R,ugm-3,48,R,ugm-3,105,R,ugm-3
18-01-1997,08:00,26,R,ugm-3,53,R,ugm-3,94,R,ugm-3
18-01-1997,09:00,171,R,ugm-3,86,R,ugm-3,348,R,ugm-3
18-01-1997,10:00,155,R,ugm-3,88,R,ugm-3,325,R,ugm-3
18-01-1997,11:00,79,R,ugm-3,61,R,ugm-3,181,R,ugm-3
18-01-1997,12:00,101,R,ugm-3,67,R,ugm-3,222,R,ugm-3
18-01-1997,13:00,13,R,ugm-3,36,R,ugm-3,55,R,ugm-3
18-01-1997,14:00,20,R,ugm-3,44,R,ugm-3,74,R,ugm-3
18-01-1997,15:00,53,R,ugm-3,61,R,ugm-3,141,R,ugm-3
18-01-1997,16:00,10,R,ugm-3,55,R,ugm-3,71,R,ugm-3
18-01-1997,17:00,4,R,ugm-3,52,R,ugm-3,57,R,ugm-3
18-01-1997,18:00,16,R,ugm-3,65,R,ugm-3,90,R,ugm-3
18-01-1997,19:00,103,R,ugm-3,76,R,ugm-3,233,R,ugm-3
18-01-1997,20:00,139,R,ugm-3,76,R,ugm-3,288,R,ugm-3
18-01-1997,21:00,174,R,ugm-3,78,R,ugm-3,344,R,ugm-3
18-01-1997,22:00,161,R,ugm-3,69,R,ugm-3,315,R,ugm-3
18-01-1997,23:00,183,R,ugm-3,69,R,ugm-3,348,R,ugm-3
18-01-1997,24:00,100,R,ugm-3,61,R,ugm-3,214,R,ugm-3
19-01-1997,01:00,96,R,ugm-3,57,R,ugm-3,204,R,ugm-3
19-01-1997,02:00,55,R,ugm-3,55,R,ugm-3,139,R,ugm-3
19-01-1997,03:00,45,R,ugm-3,50,R,ugm-3,118,R,ugm-3
19-01-1997,04:00,11,R,ugm-3,52,R,ugm-3,69,R,ugm-3
19-01-1997,05:00,10,R,ugm-3,42,R,ugm-3,57,R,ugm-3
19-01-1997,06:00,5,R,ugm-3,42,R,ugm-3,50,R,ugm-3
19-01-1997,07:00,10,R,ugm-3,44,R,ugm-3,59,R,ugm-3
19-01-1997,08:00,23,R,ugm-3,46,R,ugm-3,80,R,ugm-3
19-01-1997,09:00,6,R,ugm-3,46,R,ugm-3,55,R,ugm-3
19-01-1997,10:00,5,R,ugm-3,40,R,ugm-3,48,R,ugm-3
19-01-1997,11:00,10,R,ugm-3,50,R,ugm-3,65,R,ugm-3
19-01-1997,12:00,9,R,ugm-3,46,R,ugm-3,59,R,ugm-3
19-01-1997,13:00,1,R,ugm-3,17,R,ugm-3,19,R,ugm-3
19-01-1997,14:00,1,R,ugm-3,17,R,ugm-3,19,R,ugm-3
19-01-1997,15:00,3,R,ugm-3,29,R,ugm-3,32,R,ugm-3
19-01-1997,16:00,4,R,ugm-3,48,R,ugm-3,53,R,ugm-3
19-01-1997,17:00,9,R,ugm-3,57,R,ugm-3,71,R,ugm-3
19-01-1997,18:00,28,R,ugm-3,53,R,ugm-3,96,R,ugm-3
19-01-1997,19:00,1,R,ugm-3,11,R,ugm-3,13,R,ugm-3
19-01-1997,20:00,1,R,ugm-3,13,R,ugm-3,15,R,ugm-3
19-01-1997,21:00,1,R,ugm-3,11,R,ugm-3,13,R,ugm-3
19-01-1997,22:00,1,R,ugm-3,11,R,ugm-3,13,R,ugm-3
19-01-1997,23:00,1,R,ugm-3,13,R,ugm-3,15,R,ugm-3
19-01-1997,24:00,1,R,ugm-3,10,R,ugm-3,11,R,ugm-3
20-01-1997,01:00,1,R,ugm-3,19,R,ugm-3,21,R,ugm-3
20-01-1997,02:00,1,R,ugm-3,19,R,ugm-3,21,R,ugm-3
20-01-1997,03:00,1,R,ugm-3,13,R,ugm-3,15,R,ugm-3
20-01-1997,04:00,1,R,ugm-3,11,R,ugm-3,13,R,ugm-3
20-01-1997,05:00,1,R,ugm-3,11,R,ugm-3,13,R,ugm-3
20-01-1997,06:00,8,R,ugm-3,27,R,ugm-3,38,R,ugm-3
20-01-1997,07:00,44,R,ugm-3,57,R,ugm-3,124,R,ugm-3
20-01-1997,08:00,211,R,ugm-3,134,R,ugm-3,456,R,ugm-3
20-01-1997,09:00,153,R,ugm-3,134,R,ugm-3,367,R,ugm-3
20-01-1997,10:00,90,R,ugm-3,88,R,ugm-3,225,R,ugm-3
20-01-1997,11:00,135,R,ugm-3,94,R,ugm-3,300,R,ugm-3
20-01-1997,12:00,85,R,ugm-3,92,R,ugm-3,222,R,ugm-3
20-01-1997,13:00,70,R,ugm-3,80,R,ugm-3,187,R,ugm-3
20-01-1997,14:00,34,R,ugm-3,63,R,ugm-3,115,R,ugm-3
20-01-1997,15:00,38,R,ugm-3,63,R,ugm-3,120,R,ugm-3
20-01-1997,16:00,93,R,ugm-3,94,R,ugm-3,235,R,ugm-3
20-01-1997,17:00,76,R,ugm-3,88,R,ugm-3,204,R,ugm-3
20-01-1997,18:00,146,R,ugm-3,107,R,ugm-3,330,R,ugm-3
20-01-1997,19:00,141,R,ugm-3,88,R,ugm-3,304,R,ugm-3